Weather History for KUES - January, 2012

Change the Weather History Date:

Friday, January 27, 2012

  Actual Average Record
Temperature  
Mean Temperature 32 °F -  
Max Temperature 37 °F 25 °F 57 °F (2002)
Min Temperature 26 °F 10 °F -13 °F (1966)
Degree Days  
Heating Degree Days 34    
Moisture  
Dew Point 26 °F    
Average Humidity 79    
Maximum Humidity 100    
Minimum Humidity 45    
Precipitation  
Precipitation 0.00 in - - ()
Sea Level Pressure  
Sea Level Pressure 29.80 in    
Wind  
Wind Speed 10 mph (West)    
Max Wind Speed 16 mph    
Max Gust Speed 22 mph    
Visibility 8 miles    
Events Snow    
Averages and records for this station are not official NWS values.
T = Trace of Precipitation, MM = Missing Value Source: NWS Daily Summary

Daily Weather History Graph

Daily Weather History Graph

Search for Another Location

Airport or City:

Trip Planner

Search our weather history database for the weather conditions in past years. The results will help you decide how hot, cold, wet, or windy it might be!

Date:

Astronomy

Jan. 27, 2012 Rise Set
Actual Time 7:13 AM CST 4:58 PM CST
Civil Twilight 6:42 AM CST 5:28 PM CST
Nautical Twilight 6:08 AM CST 6:03 PM CST
Astronomical Twilight 5:35 AM CST 6:36 PM CST
Moon 8:59 AM CST (1/27) 9:58 PM CST (1/27)
Length of Visible Light 10h 45m
Length of Day
9h 44m
Waxing Crescent, 20% of the Moon is Illuminated
Jan 27
Waxing Crescent
Jan 30
First Quarter
Feb 7
Full
Feb 14
Last Quarter
Feb 21
New

Hourly Weather History & Observations

Time (CST) Temp. Windchill Dew Point Humidity Pressure Visibility Wind Dir Wind Speed Gust Speed Precip Events Conditions
12:15 AM 32.0 °F 24.2 °F 30.2 °F 93% 29.64 in 5.0 mi NW 9.2 mph - N/A   Overcast
12:35 AM 32.0 °F 24.2 °F 30.2 °F 93% 29.64 in 5.0 mi NW 9.2 mph 16.1 mph N/A   Overcast
12:55 AM 32.0 °F 23.6 °F 30.2 °F 93% 29.65 in 5.0 mi NW 10.4 mph - N/A   Overcast
1:15 AM 32.0 °F 23.6 °F 30.2 °F 93% 29.65 in 5.0 mi NW 10.4 mph - N/A   Overcast
1:35 AM 32.0 °F 23.0 °F 30.2 °F 93% 29.66 in 5.0 mi NW 11.5 mph - N/A   Overcast
2:15 AM 32.0 °F 24.2 °F 28.4 °F 87% 29.68 in 7.0 mi NW 9.2 mph - N/A   Overcast
2:35 AM 32.0 °F 24.2 °F 28.4 °F 87% 29.68 in 10.0 mi NW 9.2 mph - N/A   Overcast
2:55 AM 32.0 °F 22.1 °F 26.6 °F 80% 29.70 in 10.0 mi NW 13.8 mph - N/A   Overcast
3:15 AM 32.0 °F 24.2 °F 26.6 °F 80% 29.70 in 10.0 mi NW 9.2 mph - N/A   Overcast
3:35 AM 32.0 °F 22.5 °F 26.6 °F 80% 29.72 in 10.0 mi NW 12.7 mph - N/A   Overcast
3:55 AM 32.0 °F 23.6 °F 26.6 °F 80% 29.73 in 10.0 mi NW 10.4 mph - N/A   Overcast
4:15 AM 32.0 °F 22.1 °F 26.6 °F 80% 29.74 in 10.0 mi WNW 13.8 mph - N/A   Overcast
4:35 AM 32.0 °F 21.2 °F 24.8 °F 75% 29.75 in 10.0 mi WNW 16.1 mph - N/A   Scattered Clouds
5:45 AM 28.4 °F 17.5 °F 21.2 °F 74% 29.78 in 10.0 mi WNW 13.8 mph - N/A   Clear
6:45 AM 26.6 °F 15.2 °F 21.2 °F 80% 29.81 in 10.0 mi WNW 13.8 mph - N/A   Clear
7:45 AM 26.6 °F 17.5 °F 21.2 °F 80% 29.83 in 10.0 mi WNW 9.2 mph - N/A   Clear
8:45 AM 26.6 °F 16.8 °F 21.2 °F 80% 29.85 in 10.0 mi WNW 10.4 mph - N/A   Clear
9:45 AM 28.4 °F 19.1 °F 21.2 °F 74% 29.87 in 10.0 mi WNW 10.4 mph - N/A   Clear
10:45 AM 30.2 °F 21.9 °F 21.2 °F 69% 29.89 in 10.0 mi West 9.2 mph - N/A   Clear
11:45 AM 33.8 °F 26.4 °F 21.2 °F 60% 29.89 in 10.0 mi West 9.2 mph - N/A   Clear
1:45 PM 37.4 °F 30.8 °F 17.6 °F 45% 29.86 in 10.0 mi WSW 9.2 mph - N/A   Clear
2:45 PM 35.6 °F 29.9 °F 19.4 °F 52% 29.86 in 10.0 mi WSW 6.9 mph - N/A   Overcast
3:45 PM 35.6 °F 32.8 °F 19.4 °F 52% 29.87 in 10.0 mi SSW 3.5 mph - N/A   Mostly Cloudy
4:45 PM 33.8 °F 27.7 °F 19.4 °F 56% 29.89 in 10.0 mi WSW 6.9 mph - N/A   Mostly Cloudy
5:45 PM 32.0 °F 25.6 °F 21.2 °F 64% 29.92 in 10.0 mi SW 6.9 mph - N/A   Scattered Clouds
6:45 PM 32.0 °F 24.2 °F 19.4 °F 60% 29.90 in 10.0 mi SW 9.2 mph - N/A   Overcast
7:45 PM 32.0 °F 24.2 °F 21.2 °F 64% 29.90 in 10.0 mi SW 9.2 mph - N/A   Overcast
8:15 PM 32.0 °F 22.5 °F 24.8 °F 75% 29.89 in 10.0 mi SW 12.7 mph 18.4 mph N/A   Overcast
8:35 PM 32.0 °F 23.6 °F 28.4 °F 87% 29.88 in 4.0 mi SW 10.4 mph 16.1 mph N/A Snow Light Snow
8:45 PM 30.2 °F 19.8 °F 28.4 °F 93% 29.87 in 3.0 mi SSW 13.8 mph - N/A Snow Light Snow
9:15 PM 32.0 °F 25.6 °F 28.4 °F 87% 29.86 in 10.0 mi South 6.9 mph - N/A   Overcast
9:35 PM 32.0 °F 24.2 °F 28.4 °F 87% 29.85 in 10.0 mi SSW 9.2 mph - N/A   Overcast
9:55 PM 32.0 °F 24.2 °F 28.4 °F 87% 29.84 in 10.0 mi SSW 9.2 mph - N/A   Overcast
10:15 PM 32.0 °F 23.6 °F 30.2 °F 93% 29.83 in 10.0 mi SSW 10.4 mph 18.4 mph N/A   Overcast
10:35 PM 32.0 °F 22.5 °F 30.2 °F 93% 29.83 in 4.0 mi SSW 12.7 mph 17.3 mph N/A Snow Light Snow
10:55 PM 32.0 °F 21.2 °F 28.4 °F 87% 29.83 in 5.0 mi SW 16.1 mph 20.7 mph N/A Snow Light Snow
11:15 PM 32.0 °F 21.6 °F 30.2 °F 93% 29.82 in 2.5 mi SSW 15.0 mph 21.9 mph N/A Snow Light Snow
11:35 PM 32.0 °F 23.6 °F 30.2 °F 93% 29.81 in 2.0 mi SW 10.4 mph - N/A Snow Light Snow
11:55 PM 30.2 °F 21.3 °F 30.2 °F 100% 29.80 in 1.5 mi SSW 10.4 mph - N/A Snow Light Snow